Theta_e
290 290 290 291 291 292 292 292 292 292 293 293 293 293 293 292 291 291 291 291 290 290 289 289 289 289 289 289 288 288 288 289 294 286 285 285 284 283 282 282 282 282 283
288 289 289 289 290 290 291 291 291 291 291 292 292 292 292 292 291 290 290 290 290 289 289 288 289 288 288 288 287 287 287 287 288 286 283 283 283 283 282 281 281 282 282
287 287 287 288 288 288 288 288 289 290 290 290 290 290 290 290 290 290 290 290 289 289 289 288 288 287 287 286 286 286 286 285 285 286 283 281 281 280 280 280 280 281 281
286 286 286 286 287 287 286 286 286 287 289 289 290 289 289 290 289 289 289 289 289 288 288 287 287 287 287 286 285 285 284 284 283 284 283 280 280 280 280 281 281 280 281
285 285 285 285 286 286 285 284 284 285 286 288 288 289 289 288 288 288 288 288 288 288 287 287 286 287 286 286 285 284 284 284 283 283 283 281 280 279 280 281 281 282 281
284 284 283 283 284 284 283 282 283 284 285 286 287 287 288 288 288 288 287 287 287 287 287 287 286 285 285 285 285 285 285 284 283 283 283 282 281 281 281 281 281 281 283
283 282 282 282 283 283 281 280 281 283 284 285 286 286 287 287 287 287 287 287 287 287 287 286 285 285 284 284 284 284 284 284 285 283 283 282 281 281 281 281 280 280 281
282 282 281 281 281 281 279 279 280 282 284 284 284 285 286 286 287 287 287 287 287 286 286 286 286 284 283 283 284 284 283 283 283 282 282 282 281 281 281 281 280 280 280
282 281 280 280 279 278 277 278 279 281 282 281 282 283 285 286 286 287 287 287 287 287 286 286 286 285 283 283 283 284 283 281 282 281 280 280 280 280 280 279 279 279 279
281 280 279 278 278 276 276 276 277 278 278 278 281 282 283 284 285 286 286 287 287 287 287 285 284 284 283 283 283 283 282 281 281 280 279 280 280 280 279 279 279 279 278
278 278 277 277 276 275 274 274 274 274 275 276 278 281 282 283 284 285 286 286 287 287 287 285 283 283 283 282 283 283 283 282 281 280 281 280 280 279 280 279 278 277 277
275 275 274 274 273 272 272 272 272 272 274 275 277 280 282 282 283 284 285 286 286 287 287 285 283 282 283 282 284 282 283 282 281 281 281 280 278 277 277 277 275 275 275
272 271 271 270 270 269 269 270 270 271 272 274 276 279 281 282 283 282 284 285 285 286 287 284 281 282 282 282 284 283 283 281 280 280 280 279 278 276 275 274 273 273 273
268 268 267 267 267 267 267 268 269 270 271 273 275 277 280 282 282 282 281 282 284 284 285 282 282 281 282 282 283 282 282 279 280 279 278 277 275 274 273 273 272 272 272
264 264 264 264 265 265 265 266 267 268 269 271 273 274 277 281 282 282 281 281 281 283 283 281 281 281 281 282 283 280 280 278 278 277 276 274 273 273 272 272 272 272 271
263 263 263 263 263 264 264 265 265 267 268 270 272 273 275 276 279 282 282 282 283 283 281 280 281 281 282 282 283 281 279 277 276 275 274 273 273 272 272 272 271 271 271
262 263 263 263 263 263 264 264 265 265 266 268 270 272 274 276 278 283 283 284 283 284 280 281 281 281 282 282 281 277 277 276 275 274 273 273 272 272 271 271 271 271 270
262 262 263 263 263 263 264 264 264 265 266 267 268 270 272 276 282 283 284 284 283 284 281 281 281 281 282 280 276 276 274 273 273 272 272 271 271 271 270 271 270 270 270
262 263 263 264 264 264 264 265 265 265 266 267 268 269 271 275 280 281 285 284 283 284 282 281 281 280 278 277 275 273 273 272 272 271 270 270 269 269 269 269 269 268 268
263 264 264 264 264 265 265 265 265 266 267 267 268 270 271 277 279 281 285 283 283 284 281 279 277 275 275 274 273 271 271 270 270 269 268 268 268 268 268 268 268 268 268
263 264 265 266 266 266 266 267 267 267 267 268 270 271 277 278 279 280 283 282 282 278 276 275 273 274 272 271 270 269 269 268 268 267 267 267 267 267 267 267 267 267 267
264 264 265 266 267 268 270 270 269 268 268 270 272 276 276 275 276 274 273 273 273 273 273 273 273 271 270 269 269 268 267 267 268 268 267 267 267 266 266 266 266 267 267
263 264 265 266 267 268 269 270 271 272 272 272 271 271 270 269 268 268 268 269 269 270 270 270 270 268 269 269 268 268 268 268 269 269 268 267 267 266 266 266 266 266 266
263 263 264 265 265 266 267 267 267 267 267 266 266 266 265 265 265 264 265 265 266 267 267 268 269 269 268 268 269 269 269 269 269 268 268 267 266 266 265 266 266 266 266
261 262 263 263 264 264 265 265 265 265 265 265 264 264 264 263 263 263 263 264 264 265 266 267 268 268 269 268 268 268 268 267 267 267 267 267 267 266 266 266 266 265 266
260 261 261 262 262 263 263 263 263 264 264 263 263 263 263 263 263 263 263 264 265 266 266 266 266 267 268 267 267 266 266 266 266 266 266 266 266 267 266 267 267 266 266
Wind_Speed
24 21 19 19 21 20 17 17 18 20 21 22 25 30 32 32 34 36 39 36 38 38 37 36 36 34 35 32 31 30 27 21 8 7 14 15 19 19 19 19 18 15 12
24 23 22 20 20 21 23 24 22 19 19 21 24 27 28 31 34 37 38 37 37 39 39 39 39 36 37 36 35 36 35 34 18 10 18 18 19 19 17 17 17 17 15
23 22 22 23 22 23 23 24 24 23 21 20 22 26 28 31 33 36 38 39 38 40 40 40 42 39 38 35 38 35 34 34 32 20 11 16 17 20 18 17 16 16 15
22 23 23 24 22 23 23 25 26 28 26 25 23 23 27 30 33 34 36 36 38 39 40 41 41 44 45 40 37 36 30 29 26 24 18 15 16 13 16 15 14 14 13
21 22 24 24 23 24 24 26 29 27 27 27 27 27 26 28 31 30 33 37 38 37 38 39 43 43 46 43 40 36 33 29 24 23 19 15 17 14 21 15 14 10 11
19 21 24 26 25 25 28 30 27 25 24 23 24 25 29 30 29 30 33 36 37 38 39 40 41 43 45 47 47 42 48 41 31 26 22 22 23 21 19 17 12 7 3
22 21 21 22 25 25 28 28 27 27 24 24 22 23 27 30 27 29 35 40 36 39 40 40 38 42 46 44 43 38 38 41 43 42 32 27 23 26 21 16 13 9 7
24 28 29 25 26 26 29 29 30 29 28 28 29 27 28 29 26 28 32 37 40 40 40 40 40 40 42 45 42 40 40 40 37 31 32 28 25 25 22 17 13 10 9
22 21 22 25 29 31 32 30 30 30 30 33 34 31 29 33 26 27 28 32 37 41 37 37 40 41 42 44 42 41 36 35 33 30 29 25 22 22 24 21 16 13 8
25 26 26 26 26 30 33 37 35 30 35 33 34 33 32 36 32 28 27 32 34 35 35 35 39 40 36 40 40 40 37 38 37 32 27 25 26 23 22 21 21 18 11
25 27 31 29 30 30 33 34 35 37 36 36 35 35 34 34 34 30 29 34 34 31 31 31 33 36 37 38 40 40 42 35 37 34 31 29 26 25 25 24 20 19 17
27 30 31 33 33 34 35 35 35 34 34 39 34 36 33 32 31 32 32 33 35 35 32 30 29 31 36 38 42 40 37 36 37 34 31 29 27 25 24 25 21 17 17
35 35 36 35 35 35 35 35 32 31 30 33 30 31 31 28 28 29 32 32 33 38 32 28 27 30 35 39 44 41 39 37 36 33 31 28 27 24 22 19 14 14 14
38 37 36 35 35 34 33 33 32 31 29 28 28 28 30 28 27 23 23 27 32 31 33 29 30 30 33 36 36 37 37 34 33 30 28 25 23 24 19 17 16 14 11
36 35 34 32 32 32 31 31 31 33 33 31 31 30 29 27 27 25 23 22 24 27 23 23 26 25 25 29 30 32 32 28 26 25 26 26 24 22 18 18 15 14 10
33 31 30 32 32 31 31 32 33 39 41 43 46 45 42 45 44 37 31 27 30 26 26 24 23 25 25 28 28 30 30 30 25 27 26 25 23 21 19 16 13 14 13
33 33 32 32 30 30 29 29 24 31 34 36 38 40 42 45 44 39 34 29 28 27 26 24 23 24 26 25 24 25 25 28 29 26 26 24 24 21 20 16 15 13 10
33 34 33 31 31 30 30 29 29 25 19 26 30 31 34 35 36 28 31 28 22 29 28 24 22 24 25 24 23 22 22 25 26 25 25 23 21 20 19 16 14 11 9
33 32 32 32 32 32 32 31 29 28 26 26 28 31 30 27 25 26 26 25 19 19 24 22 21 22 25 24 26 24 26 25 26 25 23 23 22 21 17 13 11 9 7
31 31 32 31 31 30 29 26 25 24 23 22 22 23 26 20 17 17 21 20 17 15 20 19 20 22 24 23 24 25 24 24 23 22 21 20 17 15 13 12 10 9 8
30 30 30 29 27 27 27 25 23 21 20 20 22 25 22 18 15 16 13 16 11 14 21 24 26 28 25 25 26 25 26 25 24 25 22 19 18 16 12 10 9 7 7
27 27 26 25 26 24 24 21 19 19 20 19 21 16 16 10 0 12 14 16 18 23 23 30 29 27 27 27 27 28 27 28 29 27 24 21 19 15 15 11 9 7 7
24 24 23 22 21 22 19 17 12 12 9 9 10 7 8 9 8 14 15 18 21 23 26 27 28 26 24 23 25 29 32 32 31 28 25 22 19 15 15 12 9 7 7
21 20 19 19 19 19 18 16 15 15 13 12 12 12 12 13 13 17 16 16 19 19 20 22 23 25 27 28 28 27 27 26 24 23 22 19 16 15 12 10 9 8 8
20 19 18 18 18 18 18 18 17 16 15 14 14 14 14 15 16 18 20 21 23 25 25 27 29 28 28 27 25 23 22 21 21 20 17 15 13 12 11 10 9 9 11
20 19 18 17 17 18 18 18 18 18 17 16 16 17 17 19 20 22 23 26 29 28 28 27 25 25 23 21 20 19 18 17 15 14 12 12 11 11 10 10 11 11 13
Wind_Direction
10 12 12 9 7 -0 347 324 303 290 278 260 251 245 238 228 225 225 225 222 219 219 217 215 216 214 216 214 213 212 208 200 189 176 190 199 197 203 215 229 240 249 249
359 359 0 1 3 0 356 351 338 311 292 275 262 251 244 234 228 225 226 226 222 219 216 214 216 212 215 213 210 209 207 207 190 166 194 194 198 210 226 232 237 243 242
354 357 355 355 356 354 350 346 342 337 314 289 268 259 251 243 234 230 228 227 226 225 222 218 215 210 211 210 210 208 206 205 196 177 170 199 207 214 215 231 235 242 244
350 350 351 348 348 346 343 341 339 337 329 312 285 263 259 252 243 236 233 233 230 229 225 223 219 215 214 208 207 208 202 201 197 182 173 183 195 205 205 213 218 228 236
342 341 341 339 337 338 340 339 337 332 326 326 304 286 272 260 250 242 238 234 233 231 228 226 223 221 219 213 207 203 199 196 199 196 185 186 190 187 200 202 208 219 251
326 325 328 331 329 330 331 332 330 326 322 318 306 291 282 267 256 249 241 238 233 231 228 226 224 220 219 214 212 209 210 194 194 201 201 198 198 199 192 189 186 188 237
314 313 317 317 319 321 323 322 322 318 318 312 306 288 276 270 266 259 248 241 237 235 232 228 223 221 216 211 210 205 206 207 212 206 201 203 197 201 189 183 183 185 207
300 309 316 315 315 314 316 314 315 315 311 311 307 299 286 274 267 254 252 246 241 238 236 229 225 221 214 207 201 201 204 204 201 201 209 206 210 203 198 190 181 196 231
285 285 294 301 305 308 308 308 307 306 303 303 299 296 288 281 268 259 252 245 241 240 235 234 231 226 215 203 197 201 199 200 197 197 204 201 194 186 186 173 168 177 220
289 289 288 290 289 296 301 302 302 298 295 294 291 286 283 279 276 262 251 245 241 238 235 232 228 228 222 206 202 198 195 195 185 184 184 182 180 185 187 191 175 186 189
287 286 288 288 287 287 289 290 294 295 294 288 286 280 276 272 267 260 247 244 243 241 234 227 224 220 219 209 206 204 207 193 186 179 178 176 181 187 187 185 189 190 192
298 291 286 286 286 286 286 285 285 284 284 285 284 281 274 270 262 257 250 239 244 239 237 227 222 214 214 209 209 211 206 194 180 177 176 176 175 180 187 196 198 197 207
300 294 291 289 286 284 282 282 281 279 274 275 277 276 274 272 267 258 253 249 243 248 244 220 207 205 210 212 215 203 198 185 180 177 181 181 182 182 184 181 180 193 208
296 295 296 293 291 287 282 278 276 274 273 271 271 272 275 269 265 259 248 244 243 243 244 207 205 199 212 210 212 195 194 186 182 175 174 169 162 163 170 170 178 189 209
298 299 298 295 291 288 281 276 273 270 268 272 271 275 280 278 266 266 258 246 239 229 219 192 192 190 201 206 197 184 186 179 174 164 155 150 156 163 169 175 169 177 206
295 295 294 293 291 287 285 284 277 276 276 273 271 269 269 267 271 266 263 258 251 235 184 189 190 185 194 195 188 179 177 169 166 157 157 158 158 162 165 170 171 189 201
290 291 291 289 286 285 284 283 286 285 281 278 275 272 269 270 268 259 252 249 250 235 192 194 198 186 187 189 183 167 166 167 164 162 156 155 155 156 163 168 182 186 196
294 292 289 286 283 281 279 278 279 281 284 284 281 278 275 274 266 261 240 239 239 235 196 193 193 185 181 171 158 161 154 153 157 151 150 153 155 156 163 172 179 185 190
297 293 290 288 284 281 279 278 276 276 277 280 286 287 284 284 276 266 242 220 227 233 189 189 184 172 163 161 162 159 159 157 152 149 149 153 154 158 162 166 171 179 188
298 296 293 289 286 283 279 275 274 274 275 276 277 277 282 274 273 271 226 204 219 237 171 161 145 145 149 154 150 149 144 143 142 144 145 150 154 157 161 165 171 182 206
300 300 299 296 290 286 281 275 270 270 272 274 274 275 272 277 272 277 186 191 202 149 142 139 134 146 152 149 149 148 147 146 149 151 151 155 163 163 162 171 181 201 220
309 307 306 304 303 303 303 277 263 261 266 269 276 288 303 335 268 93 97 107 119 131 139 149 155 159 163 161 162 157 153 151 155 161 163 166 170 172 176 180 191 209 231
318 316 318 321 326 331 339 350 337 305 310 349 360 15 30 60 63 93 99 113 130 142 153 158 157 155 163 168 168 164 158 161 165 167 169 172 177 181 183 188 198 210 235
328 332 336 340 346 352 357 2 8 19 26 28 31 40 52 63 72 83 93 103 120 129 140 147 150 151 151 153 154 155 158 162 166 169 177 176 176 183 189 202 218 238 254
340 344 351 356 356 360 5 13 18 24 31 38 44 52 61 71 77 80 90 103 114 121 126 131 134 136 139 143 148 151 154 161 168 173 178 182 188 196 205 222 243 253 259
353 357 357 3 13 16 15 17 22 27 35 44 54 61 66 69 75 83 94 106 112 115 119 122 126 131 137 143 149 156 160 164 169 175 184 194 202 212 227 247 262 268 271